Presure
181 187 191 214 210 211 227 247 254 261 273 280 319 365 355 356 347 345 338 325 317 314 307 312 311 335 328 323 303 307 305 302 296 281 260 265 255 251 252 251 245 243 243 250
195 195 204 224 225 251 246 254 265 282 301 351 349 343 323 311 538 519 508 495 486 474 416 365 305 280 281 278 335 337 309 290 306 300 261 269 272 264 254 256 256 256 252 243
206 203 204 209 221 249 264 277 289 352 361 351 376 424 459 438 487 478 478 480 489 480 465 454 453 438 366 324 299 298 325 335 91 196 303 293 278 276 279 275 272 270 271 262
210 204 185 222 243 262 278 272 366 365 330 482 502 483 471 456 441 444 438 453 449 451 454 466 458 456 446 434 420 389 316 300 307 332 343 328 302 275 286 285 293 294 286 285
189 202 195 245 261 270 271 367 352 314 509 496 495 449 435 428 443 427 425 432 443 441 441 453 465 440 440 447 464 462 457 421 400 325 299 294 315 333 320 302 280 282 296 306
206 222 236 247 266 272 372 339 304 497 481 464 457 442 447 442 461 449 444 461 460 454 437 435 442 456 447 442 454 438 438 450 467 480 459 399 327 297 120 303 319 328 326 326
208 210 240 253 268 348 338 430 498 474 447 461 448 461 445 440 454 447 428 417 413 415 409 408 427 430 426 427 429 434 444 442 437 443 456 458 488 260 471 319 84 262 238 320
199 226 247 258 377 353 336 415 479 452 437 427 415 404 400 391 394 420 415 410 403 413 416 408 402 404 403 405 408 411 413 415 426 429 442 466 437 457 443 474 498 410 323 320
218 244 265 240 297 329 285 476 458 438 422 404 397 391 387 385 374 374 381 385 384 378 377 378 377 384 389 390 393 400 386 381 388 385 397 396 399 399 414 403 480 439 433 502
240 237 246 260 336 422 404 464 443 432 413 395 386 385 375 369 375 368 373 373 373 388 381 381 376 357 348 349 353 353 359 357 352 352 352 350 357 364 380 388 380 382 409 446
239 257 377 358 328 307 399 452 440 421 401 388 384 379 372 374 376 362 368 376 376 372 351 344 339 347 346 342 339 324 330 322 320 334 336 331 323 342 355 284 343 362 365 399
248 258 357 336 392 410 392 461 437 414 398 384 399 370 365 367 380 378 379 355 342 337 334 335 333 335 329 315 309 306 307 323 319 321 327 327 329 331 346 346 348 374 401 403
256 284 362 335 292 401 386 455 430 411 392 382 408 370 361 361 355 351 349 330 324 327 323 328 319 306 300 295 295 307 298 306 328 346 363 366 363 371 367 367 369 366 417 399
259 368 349 437 410 404 378 455 427 409 389 374 394 352 358 365 358 339 329 325 317 320 321 309 297 297 295 294 296 300 324 315 313 299 315 319 339 354 342 338 339 333 359 81
254 333 339 428 409 392 379 449 427 413 393 378 387 363 359 355 355 331 332 316 317 318 305 299 290 292 284 285 310 323 302 302 295 288 299 307 294 313 319 319 325 317 321 285
292 361 331 303 418 392 372 447 435 406 390 375 394 354 349 348 348 340 329 305 319 318 295 287 284 272 283 282 316 297 289 295 302 268 281 301 297 308 302 303 312 299 311 315
290 360 324 384 390 326 379 376 433 416 397 379 371 362 345 346 343 338 331 307 323 313 289 290 283 280 274 324 291 293 284 278 291 281 285 279 285 289 296 305 309 297 299 302
298 352 356 284 356 322 384 367 467 421 401 391 373 352 357 343 335 331 341 309 304 310 287 290 281 284 275 283 292 290 270 281 277 285 279 285 274 284 273 284 284 288 286 284
304 349 316 275 353 316 382 369 356 455 413 390 386 363 367 353 335 330 319 322 311 318 303 296 289 285 273 287 296 273 269 281 272 273 273 268 272 274 274 288 282 282 280 286
340 342 306 292 349 321 390 371 352 340 407 408 400 380 360 373 345 338 330 339 321 320 332 292 286 284 272 284 265 285 276 271 262 270 269 267 271 260 271 288 270 271 273 266
363 332 316 376 347 321 394 383 371 351 335 345 419 407 382 346 388 350 339 333 330 334 320 306 294 285 288 272 263 264 278 278 278 269 270 262 267 277 269 269 274 276 264 272
354 324 324 377 351 318 325 402 389 378 357 337 322 410 412 392 366 392 336 339 343 335 314 323 305 292 287 283 278 269 278 284 261 277 281 270 271 272 274 254 272 266 269 285
351 319 315 367 347 318 318 396 394 390 379 376 355 330 319 352 406 377 367 374 349 346 342 318 312 319 301 284 284 275 280 282 286 268 259 287 271 261 271 276 276 272 264 264
345 307 318 371 351 322 304 316 342 369 377 386 367 373 357 339 333 391 406 367 383 355 350 346 338 327 320 306 299 288 285 280 280 286 279 260 272 283 285 263 277 273 279 275
340 306 282 372 340 320 304 299 314 323 327 329 335 358 370 374 373 360 340 333 364 396 377 377 364 349 338 329 316 306 308 296 291 291 284 289 271 283 266 265 276 286 282 275
328 314 278 365 339 315 301 291 298 296 305 306 312 312 316 320 326 337 348 370 377 361 344 332 359 380 387 388 355 342 328 305 312 305 298 299 294 297 284 285 287 275 271 262
294 305 386 365 339 313 297 291 285 282 280 280 287 291 289 293 298 303 308 310 329 355 363 367 381 386 350 332 331 373 388 389 343 331 327 311 308 288 296 295 294 292 290 284
Wind_Speed
79 85 89 95 94 95 106 111 113 117 118 116 95 89 89 89 89 89 88 89 89 90 91 89 89 91 98 97 93 94 94 97 93 95 95 100 103 105 107 108 106 98 90 90
85 91 96 105 108 113 114 118 119 122 111 92 92 91 91 89 23 30 37 43 48 53 80 89 94 93 97 95 91 97 96 93 91 92 95 104 109 112 106 108 106 106 99 84
92 98 102 108 115 119 120 124 122 97 96 92 84 72 47 51 28 30 27 27 30 40 48 53 58 65 91 95 96 94 94 96 17 55 99 108 107 106 111 111 108 106 101 88
99 102 98 117 127 125 125 116 98 95 91 39 25 28 30 30 33 31 33 27 28 28 31 33 41 50 57 64 71 82 97 93 91 92 98 102 105 100 111 110 110 107 96 89
101 108 105 129 126 127 123 100 97 95 35 31 20 31 38 38 31 35 32 31 28 26 26 28 23 34 37 38 33 44 54 76 82 95 93 96 99 98 101 106 100 101 99 96
111 121 130 130 131 125 101 104 99 40 36 34 28 30 30 31 29 24 23 16 10 9 11 13 15 16 17 22 22 33 39 37 34 37 50 83 86 88 43 102 104 105 104 97
115 121 134 134 133 109 104 80 41 36 39 28 31 25 25 22 18 16 13 12 11 10 9 9 6 5 5 6 9 13 12 18 23 20 20 32 18 34 49 98 19 89 64 88
113 123 135 132 107 106 106 73 38 37 36 31 30 28 26 27 23 17 12 11 9 8 8 3 1 2 1 3 8 9 8 12 13 11 16 17 21 24 35 36 32 38 106 93
130 135 129 121 118 105 100 42 35 35 33 34 29 27 25 23 22 21 14 8 7 6 5 4 6 7 6 6 4 5 7 5 3 3 6 9 16 22 23 31 21 32 34 43
138 129 132 125 105 78 74 38 35 32 30 31 31 28 25 22 19 16 15 13 11 7 9 9 16 18 13 12 12 11 9 12 11 7 6 7 5 12 14 17 21 26 30 31
142 139 109 106 105 96 71 39 31 30 29 31 28 24 23 23 20 15 13 14 18 20 23 19 16 19 18 18 18 16 16 12 9 9 7 9 14 7 12 16 25 21 30 27
140 135 109 106 82 71 69 32 29 27 26 28 21 21 18 17 21 16 17 22 22 21 19 20 19 22 24 22 18 12 8 6 1 2 2 6 10 12 12 12 24 29 25 32
135 126 104 103 98 70 66 31 29 26 28 27 14 17 19 14 12 13 21 18 17 19 20 22 24 25 19 13 9 8 6 7 4 3 13 12 14 11 12 31 33 32 22 13
137 110 103 68 69 67 64 28 27 23 24 24 12 21 15 12 9 15 16 18 16 18 20 24 19 17 12 9 8 9 15 37 37 19 33 33 32 22 33 37 41 40 37 10
132 111 103 67 65 63 64 33 28 19 20 20 10 14 12 13 10 10 14 13 16 19 25 23 18 16 9 7 6 15 30 32 29 21 29 34 17 40 40 39 46 40 34 27
120 104 103 97 60 58 59 22 23 21 19 19 7 15 13 11 12 7 10 9 14 19 22 14 12 3 10 6 31 33 20 27 38 8 18 37 30 36 31 36 45 33 36 38
123 102 102 82 69 78 54 52 22 18 16 18 15 10 12 7 8 8 11 7 11 23 16 18 12 9 4 28 30 28 24 16 28 19 29 25 26 32 36 31 32 32 31 29
121 102 93 96 79 77 55 52 26 18 16 13 14 15 3 6 6 4 4 9 8 18 9 17 9 11 5 7 29 25 14 19 14 30 21 32 20 32 23 29 27 27 26 23
124 100 100 95 76 75 51 50 48 22 15 15 12 12 5 4 5 2 1 10 11 13 24 23 18 13 9 12 27 16 16 22 16 23 19 18 20 21 26 28 33 30 24 17
116 99 99 93 72 72 48 47 47 45 24 15 10 13 10 6 6 4 3 7 11 12 16 18 14 15 8 14 6 19 20 18 12 23 20 17 23 16 22 29 33 33 35 38
99 97 96 69 70 68 47 43 42 41 42 38 17 10 11 14 10 8 7 7 10 13 18 27 22 19 21 14 10 9 18 23 29 22 24 18 20 25 25 25 29 37 36 39
98 96 92 65 66 66 63 40 38 37 34 35 37 19 13 10 10 9 10 10 11 17 14 19 23 24 24 24 21 16 20 28 14 30 30 26 26 27 30 24 30 29 30 36
95 95 91 65 63 64 62 43 40 39 38 35 33 33 34 26 10 10 9 14 14 15 21 19 17 19 32 24 28 23 28 27 32 24 17 36 30 24 29 31 36 37 37 35
93 94 89 56 56 58 58 56 49 43 40 36 37 33 31 31 31 19 9 12 13 17 21 22 24 26 23 30 36 35 35 30 31 38 34 24 32 38 42 32 38 35 38 41
90 92 88 50 52 52 54 54 51 48 46 46 44 42 39 36 31 29 29 27 19 13 16 21 26 27 28 32 35 37 47 44 41 42 37 44 34 43 34 32 39 45 45 43
89 89 88 45 46 48 49 50 49 49 47 47 47 48 47 46 45 43 39 32 26 22 21 20 18 19 25 30 35 40 44 40 53 54 49 51 48 52 45 46 49 43 40 34
95 86 45 37 39 41 44 45 46 47 47 48 47 46 47 47 47 48 48 47 45 37 30 25 21 20 22 24 24 29 33 44 51 57 63 61 61 47 51 52 52 56 58 52
Wind_Direction
315 308 309 319 315 315 319 317 313 312 309 306 304 298 294 291 288 285 281 278 276 274 273 269 267 261 262 260 259 254 253 250 246 248 252 252 249 250 251 252 251 252 251 251
316 314 317 328 324 323 321 317 315 312 311 307 304 301 297 294 276 267 263 261 260 259 264 262 265 268 268 268 259 256 254 256 250 245 250 251 250 250 249 251 252 252 251 250
325 322 320 324 327 325 320 317 316 316 314 311 307 302 302 296 304 297 289 276 264 258 256 255 251 251 255 256 259 259 254 253 243 246 244 245 250 252 253 253 252 252 254 251
327 323 324 330 328 324 321 324 322 321 317 323 325 322 314 308 302 301 296 295 286 277 267 261 258 257 251 249 247 249 253 255 253 249 249 247 245 250 251 252 254 253 251 249
321 324 325 331 327 324 328 327 326 322 334 327 329 313 312 309 309 303 295 296 295 291 285 280 276 259 258 254 259 260 256 246 246 250 251 249 246 246 249 253 253 254 251 247
328 333 332 332 328 329 331 329 327 333 330 329 326 315 312 313 314 318 316 325 334 312 314 304 293 272 254 255 260 255 256 260 263 270 259 246 248 248 230 245 248 249 249 251
335 336 333 331 331 334 333 332 338 336 333 334 334 337 340 341 348 352 350 337 331 313 299 305 317 294 273 280 282 271 273 276 271 270 272 268 257 246 246 244 253 250 250 243
335 336 334 332 337 336 335 335 341 337 340 346 347 348 349 348 358 11 3 6 13 14 34 60 306 141 200 236 248 264 243 252 260 269 255 262 253 258 256 257 250 245 245 244
338 335 331 339 339 338 337 343 342 338 345 344 348 350 351 354 356 354 354 357 346 340 345 8 26 58 74 75 67 63 84 124 145 173 203 235 239 248 253 254 265 249 252 248
338 338 341 338 342 339 340 347 344 341 350 343 350 355 359 355 1 358 358 345 349 11 22 58 82 95 108 100 95 93 106 111 119 131 152 164 198 263 278 273 213 243 247 250
338 338 343 343 343 342 343 349 346 344 348 345 354 359 3 9 7 13 12 28 63 72 88 103 102 97 98 101 103 105 107 120 163 163 182 221 248 288 244 244 235 230 241 249
339 339 344 344 344 344 345 351 348 348 346 353 5 6 15 26 27 38 55 86 90 95 103 104 107 105 112 108 115 126 157 130 240 339 246 238 246 270 292 282 280 264 263 240
338 341 346 346 345 345 347 355 351 351 350 358 25 14 19 41 65 76 83 86 92 98 100 103 112 115 122 131 135 103 95 49 37 52 60 67 93 100 92 82 67 39 359 295
341 348 347 349 348 347 348 360 354 349 351 355 13 1 18 34 67 86 98 104 109 105 109 123 125 122 120 105 85 73 89 110 106 104 96 90 86 95 102 94 84 67 36 234
342 347 349 351 351 349 348 357 358 350 347 354 11 7 17 33 67 88 104 119 123 124 132 128 128 116 98 86 100 102 127 127 117 115 107 91 108 102 97 102 93 91 76 58
347 350 350 350 353 354 350 356 343 343 341 351 0 0 8 31 52 83 126 135 138 141 145 143 140 127 106 87 111 132 135 134 117 132 124 86 95 89 108 110 101 116 98 90
348 352 352 352 353 353 356 355 354 351 339 345 352 3 1 19 48 85 147 158 161 158 164 153 159 159 158 114 134 141 152 151 124 131 117 121 103 103 95 104 103 119 106 104
351 352 353 352 354 354 359 359 10 353 349 331 341 354 7 0 30 67 120 185 180 181 186 173 179 180 191 148 147 150 161 150 153 134 150 125 139 120 138 115 120 112 125 143
350 352 353 351 356 355 359 0 2 10 359 347 328 343 324 312 348 7 308 182 202 204 189 188 190 190 213 174 161 158 176 168 168 161 171 163 158 160 140 124 127 125 125 122
352 352 353 353 357 355 359 0 2 3 7 359 336 329 339 269 298 281 244 223 209 207 210 206 210 211 227 204 260 173 178 185 200 180 189 190 175 211 169 145 170 164 164 181
353 352 353 355 357 357 1 2 4 5 5 7 2 346 321 347 263 256 268 251 228 220 206 206 214 220 215 234 264 278 221 197 200 205 202 213 211 192 201 194 186 183 199 191
352 351 353 356 358 358 3 9 8 10 11 8 9 15 358 320 324 276 322 275 252 229 229 222 227 229 230 231 239 251 230 216 226 211 211 221 224 224 212 241 214 224 217 203
351 350 352 356 358 358 3 14 16 17 17 19 19 15 15 18 344 322 310 260 265 257 239 246 245 238 227 240 240 252 250 243 225 238 252 222 229 244 238 233 229 234 247 245
350 349 352 355 358 359 -0 6 16 25 27 27 26 26 25 23 24 15 331 326 283 279 274 264 257 252 248 238 237 245 248 255 251 243 242 259 244 230 227 250 241 243 240 244
348 349 349 354 356 358 1 4 10 17 23 29 32 34 34 33 30 26 23 19 7 312 297 280 273 270 265 253 250 251 243 251 256 252 252 247 256 245 255 258 252 246 247 249
348 348 348 353 355 357 0 2 8 12 19 24 28 32 34 36 37 36 34 29 22 11 358 349 330 300 284 275 266 258 254 256 251 253 256 255 256 249 255 255 252 256 257 256
349 347 349 351 352 355 359 2 4 9 11 15 21 25 27 30 33 33 33 32 31 25 16 6 352 333 312 305 297 280 274 267 257 256 255 255 256 260 259 257 258 255 253 256